Flag for Germany Weather past 2 weeks in Demmin, Mecklenburg-Western Pomerania, Germany

Now
25 °F

Passing clouds.


Feels Like: 25 °F
Forecast: 23 / 31 °F
Wind: 2 mph from West

Location: Greifswald

Current Time: Dec 28, 2014 at 9:07:34 AM

Latest Report: Dec 28, 2014 at 8:00 AM


Visibility: 5 mi

Pressure: 30.14 "Hg

Humidity: 94%

Dew point: 24 °F

Location of DemminLocation

Historic Weather in Demmin — Graph

°F

Demmin temperature yesterday

Maximum temperature yesterday: 29 °F (at 1:00 AM)
Minimum temperature yesterday: 21 °F (at 11:00 PM)
Average temperature yesterday: 26 °F

Past Weeks' High & Low Weather Summary

 TemperatureHumidityPressure
High53 °F (Dec 19, 1:00 AM)99% (Dec 24, 2:00 AM)30.33 "Hg (Dec 24, 2:00 AM)
Low21 °F (Dec 27, 11:00 PM)59% (Dec 26, 2:00 PM)29.50 "Hg (Dec 19, 11:00 AM)
Average40 °F88%29.81 "Hg
* Reported Dec 13 8:00 AM — Dec 28 8:00 AM, Demmin, Weather by CustomWeather, © 2014

Note: Actual official high and low records may vary slightly from our data, if they occured in-between our weather recording intervals... More about our weather records

Advertising

Demmin weather history for previous 24 hours

 ConditionsComfort  
Time TempWeatherWind HumidityBarometerVisibility
8:00 AM
Dec 28
25 °FPassing clouds.2 mph94%30.14 "Hg5 mi
7:00 AM26 °FLow clouds.3 mph95%30.12 "Hg4 mi
6:00 AM26 °FLight snow. Passing clouds.2 mph87%30.11 "Hg2 mi
5:00 AM26 °FSnow flurries. Overcast.2 mph86%30.09 "Hg8 mi
3:00 AM25 °FOvercast.1 mph91%30.06 "Hg6 mi
2:00 AM23 °FOvercast.1 mph94%30.04 "Hg6 mi
1:00 AM24 °FPassing clouds.2 mph94%30.02 "Hg7 mi
12:00 AM23 °FPassing clouds.1 mph94%30.01 "Hg6 mi
11:00 PM
Dec 27
21 °FClear.1 mph93%29.99 "Hg6 mi
9:00 PM22 °FFog.2 mph92%29.97 "Hg4 mi
8:00 PM22 °FClear.1 mph93%29.95 "Hg5 mi
7:00 PM22 °FClear.2 mph88%29.94 "Hg6 mi
6:00 PM24 °FClear.2 mph88%29.93 "Hg5 mi
5:00 PM25 °FPassing clouds.3 mph85%29.93 "Hg5 mi
3:00 PM28 °FPartly sunny.2 mph77%29.91 "Hg16 mi
2:00 PM28 °FScattered clouds.3 mph73%29.91 "Hg19 mi
1:00 PM28 °FScattered clouds.2 mph83%29.92 "Hg9 mi
12:00 PM26 °FPassing clouds.3 mph86%29.93 "Hg9 mi
11:00 AM27 °FPartly sunny.5 mph84%29.95 "Hg9 mi
9:00 AM27 °FPartly sunny.2 mph91%29.98 "Hg9 mi
Weather by CustomWeather, © 2014

See weather overviewHow to use our weather pages